Location: Pl�tzky
(52.0521°N, 11.8020°E)
Time: 09:25:29
(UTC+00:00)

N. Korean satellite - Pass Details

Date: 30 January 2021
Orbit: 451 x 502 km, 97.2° (Epoch: 07 March)

Event Time Altitude Azimuth Distance (km) Brightness Sun altitude
Rises 04:02:04 0° 23° (NNE) 2,503 10.6 -26.7°
Reaches altitude 10° 04:04:25 10° 38° (NE) 1,614 9.7 -26.3°
Maximum altitude 04:07:16 24° 94° (E) 1,002 8.8 -25.9°
Drops below altitude 10° 04:10:04 10° 150° (SSE) 1,589 9.5 -25.4°
Sets 04:12:22 0° 164° (SSE) 2,453 10.3 -25.1°
